This demonstration page uses our WeatherBlox Daily Observations layout. Learn more.

Left ArrowRight Arrow

Hourly Observations for May 17, 2021

Temp ( °F °C ) Dew Point ( °F °C ) Humidity (%) Winds ( mph kmh ) Pressure ( in mb ) Visibility ( mi km ) Precip ( " mm )
12:53 am 00:53 Clear 75 23.9 63 17.2 66 66 SE 21 33 29.67 1005 10 16 0.00 0.00
1:53 am 01:53 Clear 73 22.8 64 17.8 74 74 SSE 20 31 29.66 1004 10 16 0.00 0.00
2:53 am 02:53 Clear 71 21.7 64 17.8 79 79 SE 16 26 29.64 1004 10 16 0.00 0.00
3:53 am 03:53 Clear 70 21.1 65 18.3 84 84 SE 15 24 29.64 1004 10 16 0.00 0.00
4:53 am 04:53 Clear 69 20.6 65 18.3 87 87 SE 10 17 29.64 1004 10 16 0.00 0.00
5:53 am 05:53 Clear 69 20.6 65 18.3 87 87 SE 12 19 29.64 1004 10 16 0.00 0.00
6:53 am 06:53 Clear 67 19.4 64 17.8 91 91 ESE 5 7 29.66 1004 9 14 0.00 0.00
7:11 am 07:11 Partly Cloudy 67 19.4 64 17.8 91 91 ENE 9 15 29.73 1007 9 14 0.00 0.00
7:22 am 07:22 Mostly Cloudy 68 20 65 18.3 90 90 NE 14 22 29.73 1007 9 14 0.00 0.00
7:53 am 07:53 Cloudy 69 20.6 65 18.3 87 87 ENE 10 17 29.70 1006 8 13 0.00 0.00
8:30 am 08:30 Partly Cloudy 72 22.2 64 17.8 76 76 E 13 20 29.72 1006 10 16 0.00 0.00
8:42 am 08:42 Mostly Cloudy 72 22.2 64 17.8 76 76 E 14 22 29.73 1007 10 16 0.00 0.00
8:53 am 08:53 Mostly Cloudy 73 22.8 64 17.8 74 74 E 13 20 29.72 1007 10 16 0.00 0.00
9:17 am 09:17 Mostly Cloudy 74 23.3 64 17.8 71 71 E 12 19 29.72 1006 10 16 0.00 0.00
9:53 am 09:53 Partly Cloudy 76 24.4 63 17.2 64 64 E 10 17 29.72 1006 10 16 0.00 0.00
10:53 am 10:53 Mostly Sunny 78 25.6 62 16.7 58 58 ESE 13 20 29.72 1006 10 16 0.00 0.00
11:53 am 11:53 Mostly Sunny 80 26.7 61 16.1 52 52 SE 10 17 29.71 1006 10 16 0.00 0.00
12:53 pm 12:53 Sunny 85 29.4 55 12.8 36 36 SE 6 9 29.69 1005 10 16 0.00 0.00
1:53 pm 13:53 Sunny 86 30 52 11.1 31 31 ESE 6 9 29.66 1004 10 16 0.00 0.00
2:53 pm 14:53 Mostly Sunny 89 31.7 50 10 26 26 VRB 6 9 29.64 1004 10 16 0.00 0.00
3:53 pm 15:53 Sunny 91 32.8 42 5.6 18 18 WNW 8 13 29.62 1003 10 16 0.00 0.00
4:53 pm 16:53 Sunny 92 33.3 39 3.9 16 16 W 16 26 29.58 1002 10 16 0.00 0.00
5:53 pm 17:53 Sunny 93 33.9 31 -0.6 11 11 WSW 13 20 29.56 1001 10 16 0.00 0.00
6:53 pm 18:53 Sunny 92 33.3 23 -5 8 8 W 15 24 29.55 1001 10 16 0.00 0.00
7:53 pm 19:53 Sunny 91 32.8 23 -5 8 8 WNW 12 19 29.53 1000 10 16 0.00 0.00
8:53 pm 20:53 Clear 83 28.3 25 -3.9 12 12 WNW 8 13 29.54 1000 10 16 0.00 0.00
9:53 pm 21:53 Clear 78 25.6 27 -2.8 15 15 NW 5 7 29.56 1001 10 16 0.00 0.00
10:53 pm 22:53 Clear 75 23.9 28 -2.2 18 18 SE 8 13 29.61 1003 10 16 0.00 0.00
11:53 pm 23:53 Clear 72 22.2 35 1.7 26 26 SE 8 13 29.64 1004 10 16 0.00 0.00

Powered by AerisWeather